Regional Weather Roundup
Issued by NWS

Home | Current Version | Previous Version | Text Only | Print | Product List | Glossary Off
Versions: 1 2 3 4 5 6 7 8 9 10 11 12 13 14 15 16 17 18 19 20 21 22 23 24 25 26 27 28 29 30 31 32 33 34 35 36 37 38 39 40 41 42 43 44 45 46 47 48 49 50

000
ASUS43 KMKX 110600
RWRWI

WISCONSIN REGIONAL WEATHER ROUNDUP
NATIONAL WEATHER SERVICE MILWAUKEE/SULLIVAN WI
1200 AM CST SUN DEC 11 2016

NOTE: "FAIR" INDICATES FEW OR NO CLOUDS BELOW 12,000 FEET WITH NO
SIGNIFICANT WEATHER AND/OR OBSTRUCTIONS TO VISIBILITY.

WIZ001-002-006>008-014>016-023>028-110700-
NORTHWEST WISCONSIN

CITY           SKY/WX    TMP DP  RH WIND       PRES   REMARKS
SUPERIOR ARPT  CLOUDY     9   2  74 CALM      30.26F
ASHLAND        CLOUDY     7   2  80 CALM      30.27S
6HR MIN TEMP:   2; 6HR MAX TEMP:   7;

HAYWARD        LGT SNOW  11   5  77 E3        30.20F
6HR MIN TEMP:   8; 6HR MAX TEMP:  12; 6HR PCP: TRACE;

SIREN          FLURRIES  11   7  82 E5        30.20F WCI   3
CUMBERLAND     LGT SNOW  10   9  92 E5        30.18F WCI   2
RICE LAKE      LGT SNOW  12   9  86 E5        30.21F VSB 1   WCI   4
CHETEK         LGT SNOW  12   9  87 E3        30.20F
LADYSMITH      LGT SNOW  12   8  86 E3        30.22S
EAU CLAIRE     NOT AVBL
MENOMONIE      LGT SNOW  15  12  88 E7        30.20F WCI   5
NEW RICHMOND   LGT SNOW  13   9  85 E7        30.16F WCI   3
OSCEOLA        LGT SNOW  13  10  86 E6        30.21F WCI   4
$$

WIZ003>005-009-010-017-018-110700-
NORTH CENTRAL WISCONSIN

CITY           SKY/WX    TMP DP  RH WIND       PRES   REMARKS
MANITOWISH WTR CLOUDY     3   1  91 CALM      30.18F
ARBOR VITAE    CLOUDY     9   5  83 CALM      30.18F
WOODRUFF       CLOUDY     9   5  83 CALM      30.18F
RHINELANDER    CLOUDY     9   4  80 SE3       30.19F HAZE
6HR MIN TEMP:   2; 6HR MAX TEMP:   9; 6HR PCP: TRACE;

EAGLE RIVER    CLOUDY     3  -1  83 CALM      30.19F
LAND O LAKES   CLOUDY     0  -3  85 CALM      30.21S
PHILLIPS       FLURRIES   9   6  87 SE6       30.18F WCI  -1
6HR MIN TEMP:   3; 6HR MAX TEMP:   9;

TOMAHAWK       LGT SNOW   9   5  85 CALM      30.20F
MEDFORD        LGT SNOW  10   7  85 CALM      30.18S
MERRILL        LGT SNOW  10   7  87 E3        30.22F
$$

WIZ029-030-035-036-043>047-110700-
CENTRAL WISCONSIN

CITY           SKY/WX    TMP DP  RH WIND       PRES   REMARKS
WAUSAU         LGT SNOW  11   8  88 E6        30.20F FOG     WCI   1
6HR MIN TEMP:  10; 6HR MAX TEMP:  11; 6HR PCP:  0.01;

MOSINEE        LGT SNOW  14  12  92 E6        30.21F WCI   5
MARSHFIELD     LGT SNOW  14  10  84 E6        30.18F FOG     WCI   5
6HR MIN TEMP:  12; 6HR MAX TEMP:  14; 6HR PCP: TRACE;

STEVENS POINT  LGT SNOW  13  10  91 E5        30.23F WCI   5
WAUPACA        LGT SNOW  18  15  85 CALM      30.26F
WAUTOMA        LGT SNOW  16  14  92 E5        30.23F VSB 1   WCI   9
6HR MIN TEMP:  15; 6HR MAX TEMP:  16; 6HR PCP: TRACE;

WISC RAPIDS    LGT SNOW  15  13  91 SE7       30.22F FOG     WCI   5
6HR MIN TEMP:  14; 6HR MAX TEMP:  15; 6HR PCP:  0.07;

CAMP DOUGLAS   LGT SNOW  16  14  93 E7        30.19F FOG     WCI   6
$$

WIZ011>013-019>022-031-037>040-048>050-110700-
NORTHEAST WISCONSIN

CITY           SKY/WX    TMP DP  RH WIND       PRES   REMARKS
ANTIGO         LGT SNOW   9   6  87 SE5       30.20F WCI   0
SHAWANO        LGT SNOW  16  12  84 CALM      30.29F
OCONTO         CLOUDY    14   8  75 CALM      30.31F
STURGEON BAY   LGT SNOW  17  11  77 S3        30.30F
6HR MIN TEMP:  14; 6HR MAX TEMP:  17; 6HR PCP:  0.06;

GREEN BAY      LGT SNOW  19  15  84 E3        30.28F FOG
6HR MIN TEMP:  18; 6HR MAX TEMP:  19; 6HR PCP:  0.02;

MANITOWOC      LGT SNOW  18  16  93 CALM      30.31F FOG
APPLETON       LGT SNOW  18  14  86 CALM      30.25F
CLINTONVILLE   LGT SNOW  18  12  79 SE3       30.27F
OSHKOSH        LGT SNOW  19  15  84 E6        30.25F VSB 1   WCI  11
6HR MIN TEMP:  17; 6HR MAX TEMP:  19; 6HR PCP:  0.05;

$$

WIZ032>034-041-042-053>061-110700-
SOUTHWEST WISCONSIN

CITY           SKY/WX    TMP DP  RH WIND       PRES   REMARKS
LA CROSSE      LGT SNOW  18  14  84 E5        30.19F FOG     WCI  11
6HR MIN TEMP:  16; 6HR MAX TEMP:  18; 6HR PCP:  0.15;

SPARTA         LGT SNOW  17  15  93 E5        30.20F WCI   9
VIROQUA        CLOUDY    17  16  93 SE10      30.14F WCI   5
6HR MIN TEMP:  14; 6HR MAX TEMP:  17;

BOSCOBEL       LGT SNOW  21  18  88 NE5       30.20F VSB 1   WCI  15
6HR MIN TEMP:  20; 6HR MAX TEMP:  23; 6HR PCP:  0.04;

PRAIRIE DU CHI LGT SNOW  22  18  86 E5        30.19F WCI  15
PLATTEVILLE    CLOUDY    22  21  98 E10       30.18F WCI  11
$$

WIZ056-057-062-063-064-067-068-110700-
SOUTH CENTRAL WISCONSIN

CITY           SKY/WX    TMP DP  RH WIND       PRES   REMARKS
REEDSBURG      LGT SNOW  18  17  97 E3        30.20F
BARABOO/DELLS  LGT SNOW  18  16  92 E6        30.20F VSB 1   WCI  10
LONE ROCK      LGT SNOW  20  17  88 E8        30.22F VSB 1   WCI  10
MINERAL POINT  LGT SNOW  23  21  93 E8        30.17F WCI  14
MADISON        LGT SNOW  19  17  92 SE7       30.22F VSB 1   WCI  10
6HR MIN TEMP:  19; 6HR MAX TEMP:  20; 6HR PCP:  0.12;

MIDDLETON      CLOUDY    22  19  91 SE8       30.22F WCI  12
WATERTOWN      LGT SNOW  20  20 100 E5        30.25F WCI  13
MONROE         LGT SNOW  21  21 100 E6        30.19F WCI  14
JANESVILLE     LGT SNOW  23  23 100 SE6       30.23F WCI  16
$$

WIZ051-052-058>065-066-070>072-110700-
SOUTHEAST WISCONSIN

CITY           SKY/WX    TMP DP  RH WIND       PRES   REMARKS
MILWAUKEE      LGT SNOW  22  18  85 SE6       30.28F VSB 1   WCI  14
6HR MIN TEMP:  22; 6HR MAX TEMP:  22; 6HR PCP:  0.06;

WAUKESHA       LGT SNOW  19  18  93 E5        30.27F VSB 1   WCI  13
MILWAUKEE/TIMM LGT SNOW  21  18  86 CALM      30.29F
RACINE         LGT SNOW  23  19  85 S6        30.29F FOG     WCI  16
6HR MIN TEMP:  21; 6HR MAX TEMP:  23; 6HR PCP:  0.03;

BURLINGTON     LGT SNOW  25  24  96 CALM      30.26F
KENOSHA        LGT SNOW  23  19  85 S10       30.27F FOG     WCI  12
6HR MIN TEMP:  21; 6HR MAX TEMP:  23; 6HR PCP: TRACE;

FOND DU LAC    LGT SNOW  20  15  81 SE7       30.25F VSB 1   WCI  11
6HR MIN TEMP:  18; 6HR MAX TEMP:  20; 6HR PCP:  0.04;

SHEBOYGAN      LGT SNOW  18  15  88 CALM      30.28F FOG
6HR MIN TEMP:  18; 6HR MAX TEMP:  18; 6HR PCP:  0.02;

WEST BEND      LGT SNOW  19  19 100 SE3       30.27F
JUNEAU         SNOW      19  17  93 E7        30.26F VSB 1/2 WCI  10
$$

LSZ147-162-110700-
LAKE SUPERIOR

STATION/POSITION TIME  TEMP    WIND        PRES    WAVE
                       AIR SEA DIR/SP/G            HT/PER
                 (UTC) (F)     (DEG/KT/KT) (MB)    (FT/S)
DEVILS ISLAND    0500   14     190/  5/  7 1026.9R
PORT WING        0530    7     120/  4/  6 1025.1F
SAXON HARBOR     0530    6     180/  4/  6 1025.1F
$$

LMZ867-665-643>646-110700-
LAKE MICHIGAN

STATION/POSITION TIME  TEMP    WIND        PRES    WAVE
                       AIR SEA DIR/SP/G            HT/PER
                 (UTC) (F)     (DEG/KT/KT) (MB)    (FT/S)
CHAMBERS ISLAND  0540   17     230/  2/  7 1025.4F
NORTHPORT PIER   0540   18      CALM  /  2 1026.1F
SISTER BAY       0535   20     280/  9/ 11   N/A
ALGOMA LAKESHORE 0536             CALM       N/A
KEWAUNEE LAKESHO 0530   17        CALM     1025.7F
SHEBOYGAN LAKESH 0500   19     270/  3/  3 1027.6R
PORT WASHINGTON  0540   21     250/  5/  6 1026.8F
KENOSHA   LAKESH 0500   23     200/  7/ 10 1026.1
$$

TC  - TEMPERATURE IN CELSIUS
VSB - VISIBILITY IN STATUTE MILES
WCI - WIND CHILL INDEX
HX  - HEAT INDEX





USA.gov is the U.S. government's official web portal to all federal, state and local government web resources and services.